Location: Losili
(4.4086°N, 32.7049°E)
Time: 15:59:22
(UTC+00:00)

Meteor 1-15 Rocket - Pass Details

Date: 18 September 2019
Orbit: 840 x 907 km, 81.2° (Epoch: 19 October)

Event Time Altitude Azimuth Distance (km) Brightness Sun altitude
Rises 17:07:46 0° 185° (S) 3,406 7.4 -20.9°
Reaches altitude 10° 17:10:10 10° 185° (S) 2,477 6.6 -21.5°
Maximum altitude 17:15:47 90° 166° (SSE) 865 4.1 -22.9°
Drops below altitude 10° 17:21:31 10° 5° (N) 2,514 6.6 -24.3°
Sets 17:23:58 0° 5° (N) 3,461 7.4 -24.9°
